This is the latest recevied weather packets stored in our database for station/object N0HEQ. If no packets are shown the sender has not sent any weather packets the latest 10 day(s).
| Time | Temp. | Humidity | Pressure | Rain* | Wind** | Luminosity | Snow |
|---|---|---|---|---|---|---|---|
| 1777917430 | 20.56° C | 21% | 1011.3 hPa | 0 mm | - | 67 W/m² | - |
| 1777917127 | 20.56° C | 23% | 1011.3 hPa | 0 mm | - | 80 W/m² | - |
| 1777916825 | 20.56° C | 22% | 1011.4 hPa | 0 mm | - | 95 W/m² | - |
| 1777916522 | 20.56° C | 23% | 1011.5 hPa | 0 mm | - | 110 W/m² | - |
| 1777916218 | 21.11° C | 22% | 1011.5 hPa | 0 mm | - | 126 W/m² | - |
| 1777915916 | 21.67° C | 21% | 1011.5 hPa | 0 mm | - | 142 W/m² | - |
| 1777915612 | 22.22° C | 21% | 1011.5 hPa | 0 mm | - | 200 W/m² | - |
| 1777915309 | 22.22° C | 21% | 1011.6 hPa | 0 mm | - | 364 W/m² | - |
| 1777915005 | 21.67° C | 21% | 1012 hPa | 0 mm | - | 483 W/m² | - |
| 1777914703 | 21.67° C | 21% | 1011.7 hPa | 0 mm | - | 550 W/m² | - |
| 1777914399 | 21.11° C | 21% | 1011.9 hPa | 0 mm | - | 391 W/m² | - |
| 1777914096 | 21.67° C | 21% | 1012 hPa | 0 mm | - | 369 W/m² | - |
| 1777913792 | 21.67° C | 21% | 1012 hPa | 0 mm | - | 554 W/m² | - |
| 1777913488 | 21.67° C | 22% | 1011.9 hPa | 0 mm | - | 340 W/m² | - |
| 1777913185 | 21.67° C | 21% | 1012.1 hPa | 0 mm | - | 447 W/m² | - |
| 1777912881 | 21.11° C | 23% | 1012.1 hPa | 0 mm | - | 344 W/m² | - |
| 1777912578 | 20.56° C | 22% | 1011.9 hPa | 0 mm | - | 182 W/m² | - |
| 1777912275 | 20° C | 21% | 1012.2 hPa | 0 mm | - | 204 W/m² | - |
| 1777911971 | 20.56° C | 22% | 1012.4 hPa | 0 mm | - | 186 W/m² | - |
| 1777911667 | 20.56° C | 22% | 1012.2 hPa | 0 mm | - | 176 W/m² | - |
| 1777911363 | 20.56° C | 22% | 1012.2 hPa | 0 mm | - | 103 W/m² | - |
| 1777911061 | 20° C | 22% | 1012.4 hPa | 0 mm | - | 338 W/m² | - |
| 1777910758 | 20° C | 23% | 1012.6 hPa | 0 mm | - | 297 W/m² | - |
| 1777910455 | 19.44° C | 24% | 1012.7 hPa | 0 mm | - | 245 W/m² | - |
| 1777910151 | 19.44° C | 24% | 1012.8 hPa | 0 mm | - | 181 W/m² | - |
* Rain latest hour (hover to see other rain measurements)
** Current wind speed in m/s (hover to see current wind gust speed)